Time,TemperatureF,DewpointF,PressureIn,WindDirection,WindDirectionDegrees,WindSpeedMPH,WindSpeedGustMPH,Humidity,HourlyPrecipIn,Conditions,Clouds,dailyrainin,SoftwareType,DateUTC
2013-06-16 00:02:00,60.0,-99.9,29.98,SW,232,6.0,12.0,-999,-99.99,,,-99.99,,2013-06-16 04:02:00,
2013-06-16 00:12:00,60.0,-99.9,29.98,SW,227,7.0,11.0,-999,-99.99,,,-99.99,,2013-06-16 04:12:00,
2013-06-16 00:23:00,60.0,-99.9,29.98,SW,227,7.0,9.0,-999,-99.99,,,-99.99,,2013-06-16 04:23:00,
2013-06-16 00:34:00,60.0,-99.9,29.98,SW,223,5.0,9.0,-999,-99.99,,,-99.99,,2013-06-16 04:34:00,
2013-06-16 00:43:00,60.0,-99.9,29.97,SW,225,6.0,12.0,-999,-99.99,,,-99.99,,2013-06-16 04:43:00,
2013-06-16 00:53:00,60.0,-99.9,29.97,SW,232,6.0,12.0,-999,-99.99,,,-99.99,,2013-06-16 04:53:00,
2013-06-16 01:02:00,60.0,-99.9,29.98,WSW,237,6.0,10.0,-999,-99.99,,,-99.99,,2013-06-16 05:02:00,
2013-06-16 01:12:00,60.0,-99.9,29.97,SW,232,7.0,12.0,-999,-99.99,,,-99.99,,2013-06-16 05:12:00,
2013-06-16 01:22:00,61.0,-99.9,29.97,SW,232,6.0,11.0,-999,-99.99,,,-99.99,,2013-06-16 05:22:00,
2013-06-16 01:34:00,60.0,-99.9,29.97,WSW,240,7.0,10.0,-999,-99.99,,,-99.99,,2013-06-16 05:34:00,
2013-06-16 01:43:00,61.0,-99.9,29.97,WSW,238,8.0,13.0,-999,-99.99,,,-99.99,,2013-06-16 05:43:00,
2013-06-16 01:53:00,60.0,-99.9,29.97,SW,236,6.0,11.0,-999,-99.99,,,-99.99,,2013-06-16 05:53:00,
2013-06-16 02:02:00,60.0,-99.9,29.96,SW,234,7.0,11.0,-999,-99.99,,,-99.99,,2013-06-16 06:02:00,
2013-06-16 02:12:00,60.0,-99.9,29.96,SW,232,6.0,11.0,-999,-99.99,,,-99.99,,2013-06-16 06:12:00,
2013-06-16 02:23:00,60.0,-99.9,29.96,SW,235,5.0,10.0,-999,-99.99,,,-99.99,,2013-06-16 06:23:00,
2013-06-16 02:33:00,60.0,-99.9,29.95,SW,236,5.0,10.0,-999,-99.99,,,-99.99,,2013-06-16 06:33:00,
2013-06-16 02:43:00,60.0,-99.9,29.95,SW,234,6.0,11.0,-999,-99.99,,,-99.99,,2013-06-16 06:43:00,
2013-06-16 02:52:00,60.0,-99.9,29.96,WSW,240,5.0,9.0,-999,-99.99,,,-99.99,,2013-06-16 06:52:00,
2013-06-16 03:01:00,60.0,-99.9,29.96,WSW,241,6.0,12.0,-999,-99.99,,,-99.99,,2013-06-16 07:01:00,
2013-06-16 03:12:00,60.0,-99.9,29.96,WSW,241,5.0,14.0,-999,-99.99,,,-99.99,,2013-06-16 07:12:00,
2013-06-16 03:23:00,60.0,-99.9,29.96,WSW,237,8.0,13.0,-999,-99.99,,,-99.99,,2013-06-16 07:23:00,
2013-06-16 03:33:00,60.0,-99.9,29.97,WSW,238,8.0,12.0,-999,-99.99,,,-99.99,,2013-06-16 07:33:00,
2013-06-16 03:43:00,60.0,-99.9,29.97,WSW,249,7.0,13.0,-999,-99.99,,,-99.99,,2013-06-16 07:43:00,
2013-06-16 03:53:00,60.0,-99.9,29.97,WSW,245,6.0,10.0,-999,-99.99,,,-99.99,,2013-06-16 07:53:00,
2013-06-16 04:02:00,59.0,-99.9,29.97,WSW,240,5.0,9.0,-999,-99.99,,,-99.99,,2013-06-16 08:02:00,
2013-06-16 04:12:00,59.0,-99.9,29.97,WSW,249,5.0,8.0,-999,-99.99,,,-99.99,,2013-06-16 08:12:00,
2013-06-16 04:22:00,59.0,-99.9,29.96,WSW,240,5.0,8.0,-999,-99.99,,,-99.99,,2013-06-16 08:22:00,
2013-06-16 04:34:00,59.0,-99.9,29.96,SW,234,6.0,10.0,-999,-99.99,,,-99.99,,2013-06-16 08:34:00,
2013-06-16 04:44:00,59.0,-99.9,29.96,SW,233,6.0,9.0,-999,-99.99,,,-99.99,,2013-06-16 08:44:00,
2013-06-16 04:54:00,59.0,-99.9,29.96,SW,235,6.0,10.0,-999,-99.99,,,-99.99,,2013-06-16 08:54:00,
2013-06-16 05:02:00,59.0,-99.9,29.96,SW,227,5.0,11.0,-999,-99.99,,,-99.99,,2013-06-16 09:02:00,
2013-06-16 05:11:00,59.0,-99.9,29.96,SW,232,7.0,11.0,-999,-99.99,,,-99.99,,2013-06-16 09:11:00,
2013-06-16 05:22:00,59.0,-99.9,29.96,SW,233,6.0,10.0,-999,-99.99,,,-99.99,,2013-06-16 09:22:00,
2013-06-16 05:33:00,59.0,-99.9,29.96,WSW,237,6.0,10.0,-999,-99.99,,,-99.99,,2013-06-16 09:33:00,
2013-06-16 05:43:00,59.0,-99.9,29.96,SW,233,6.0,10.0,-999,-99.99,,,-99.99,,2013-06-16 09:43:00,
2013-06-16 05:52:00,58.0,-99.9,29.96,SW,229,7.0,11.0,-999,-99.99,,,-99.99,,2013-06-16 09:52:00,
2013-06-16 06:02:00,58.0,-99.9,29.96,SW,233,7.0,10.0,-999,-99.99,,,-99.99,,2013-06-16 10:02:00,
2013-06-16 06:12:00,59.0,-99.9,29.96,SW,235,7.0,10.0,-999,-99.99,,,-99.99,,2013-06-16 10:12:00,
2013-06-16 06:22:00,59.0,-99.9,29.96,WSW,240,7.0,10.0,-999,-99.99,,,-99.99,,2013-06-16 10:22:00,
2013-06-16 06:33:00,59.0,-99.9,29.96,WSW,245,6.0,11.0,-999,-99.99,,,-99.99,,2013-06-16 10:33:00,
2013-06-16 06:43:00,60.0,-99.9,29.96,WSW,238,7.0,10.0,-999,-99.99,,,-99.99,,2013-06-16 10:43:00,
2013-06-16 06:54:00,60.0,-99.9,29.96,SW,235,6.0,11.0,-999,-99.99,,,-99.99,,2013-06-16 10:54:00,
2013-06-16 07:02:00,60.0,-99.9,29.96,SW,233,7.0,10.0,-999,-99.99,,,-99.99,,2013-06-16 11:02:00,
2013-06-16 07:12:00,61.0,-99.9,29.96,WSW,248,6.0,9.0,-999,-99.99,,,-99.99,,2013-06-16 11:12:00,
2013-06-16 07:22:00,61.0,-99.9,29.96,WSW,252,6.0,10.0,-999,-99.99,,,-99.99,,2013-06-16 11:22:00,
2013-06-16 07:34:00,62.0,-99.9,29.96,WSW,250,6.0,9.0,-999,-99.99,,,-99.99,,2013-06-16 11:34:00,
2013-06-16 07:43:00,62.0,-99.9,29.96,WSW,240,6.0,9.0,-999,-99.99,,,-99.99,,2013-06-16 11:43:00,
2013-06-16 07:53:00,64.0,-99.9,29.96,WSW,249,4.0,8.0,-999,-99.99,,,-99.99,,2013-06-16 11:53:00,
2013-06-16 08:02:00,64.0,-99.9,29.97,WSW,256,6.0,10.0,-999,-99.99,,,-99.99,,2013-06-16 12:02:00,
2013-06-16 08:12:00,64.0,-99.9,29.97,WSW,258,4.0,8.0,-999,-99.99,,,-99.99,,2013-06-16 12:12:00,
2013-06-16 08:22:00,65.0,-99.9,29.96,WSW,241,5.0,7.0,-999,-99.99,,,-99.99,,2013-06-16 12:22:00,
2013-06-16 08:33:00,66.0,-99.9,29.96,SW,214,5.0,8.0,-999,-99.99,,,-99.99,,2013-06-16 12:33:00,
2013-06-16 08:43:00,66.0,-99.9,29.97,SW,235,5.0,8.0,-999,-99.99,,,-99.99,,2013-06-16 12:43:00,
2013-06-16 08:53:00,67.0,-99.9,29.97,SW,232,5.0,7.0,-999,-99.99,,,-99.99,,2013-06-16 12:53:00,
2013-06-16 09:02:00,66.0,-99.9,29.96,SW,224,8.0,9.0,-999,-99.99,,,-99.99,,2013-06-16 13:02:00,
2013-06-16 09:12:00,67.0,-99.9,29.96,SSW,210,6.0,9.0,-999,-99.99,,,-99.99,,2013-06-16 13:12:00,
2013-06-16 09:22:00,66.0,-99.9,29.96,SW,226,6.0,10.0,-999,-99.99,,,-99.99,,2013-06-16 13:22:00,
2013-06-16 09:34:00,66.0,-99.9,29.96,SW,228,4.0,9.0,-999,-99.99,,,-99.99,,2013-06-16 13:34:00,
2013-06-16 09:43:00,65.0,-99.9,29.96,SW,220,7.0,9.0,-999,-99.99,,,-99.99,,2013-06-16 13:43:00,
2013-06-16 09:54:00,66.0,-99.9,29.96,SW,232,7.0,9.0,-999,-99.99,,,-99.99,,2013-06-16 13:54:00,
2013-06-16 10:02:00,67.0,-99.9,29.96,SW,220,5.0,10.0,-999,-99.99,,,-99.99,,2013-06-16 14:02:00,
2013-06-16 10:12:00,66.0,-99.9,29.96,SW,219,8.0,11.0,-999,-99.99,,,-99.99,,2013-06-16 14:12:00,
2013-06-16 10:23:00,65.0,-99.9,29.96,SW,214,8.0,11.0,-999,-99.99,,,-99.99,,2013-06-16 14:23:00,
2013-06-16 10:34:00,66.0,-99.9,29.96,SW,227,8.0,12.0,-999,-99.99,,,-99.99,,2013-06-16 14:34:00,
2013-06-16 10:44:00,66.0,-99.9,29.96,SW,230,8.0,12.0,-999,-99.99,,,-99.99,,2013-06-16 14:44:00,
2013-06-16 10:53:00,66.0,-99.9,29.96,SW,225,10.0,13.0,-999,-99.99,,,-99.99,,2013-06-16 14:53:00,
2013-06-16 11:02:00,66.0,-99.9,29.96,WSW,238,9.0,11.0,-999,-99.99,,,-99.99,,2013-06-16 15:02:00,
2013-06-16 11:12:00,66.0,-99.9,29.96,SW,224,8.0,12.0,-999,-99.99,,,-99.99,,2013-06-16 15:12:00,
2013-06-16 11:23:00,67.0,-99.9,29.96,SW,223,10.0,13.0,-999,-99.99,,,-99.99,,2013-06-16 15:23:00,
2013-06-16 11:34:00,67.0,-99.9,29.96,SSW,212,9.0,12.0,-999,-99.99,,,-99.99,,2013-06-16 15:34:00,
2013-06-16 11:43:00,67.0,-99.9,29.96,SW,221,8.0,15.0,-999,-99.99,,,-99.99,,2013-06-16 15:43:00,
2013-06-16 11:53:00,68.0,-99.9,29.95,SW,228,10.0,15.0,-999,-99.99,,,-99.99,,2013-06-16 15:53:00,
2013-06-16 12:02:00,68.0,-99.9,29.95,SW,228,7.0,11.0,-999,-99.99,,,-99.99,,2013-06-16 16:02:00,
2013-06-16 12:12:00,67.0,-99.9,29.95,SSW,199,9.0,14.0,-999,-99.99,,,-99.99,,2013-06-16 16:12:00,
2013-06-16 12:23:00,65.0,-99.9,29.94,SW,219,9.0,17.0,-999,-99.99,,,-99.99,,2013-06-16 16:23:00,
2013-06-16 12:34:00,66.0,-99.9,29.94,SW,218,9.0,14.0,-999,-99.99,,,-99.99,,2013-06-16 16:34:00,
2013-06-16 12:43:00,66.0,-99.9,29.94,SSW,201,9.0,15.0,-999,-99.99,,,-99.99,,2013-06-16 16:43:00,
2013-06-16 12:53:00,67.0,-99.9,29.93,SSW,207,8.0,15.0,-999,-99.99,,,-99.99,,2013-06-16 16:53:00,
2013-06-16 13:02:00,67.0,-99.9,29.93,SSW,203,8.0,15.0,-999,-99.99,,,-99.99,,2013-06-16 17:02:00,
2013-06-16 13:12:00,67.0,-99.9,29.93,SW,223,11.0,15.0,-999,-99.99,,,-99.99,,2013-06-16 17:12:00,
2013-06-16 13:22:00,67.0,-99.9,29.93,SW,223,11.0,15.0,-999,-99.99,,,-99.99,,2013-06-16 17:22:00,
2013-06-16 13:34:00,65.0,-99.9,29.92,SSW,203,10.0,14.0,-999,-99.99,,,-99.99,,2013-06-16 17:34:00,
2013-06-16 13:43:00,65.0,-99.9,29.92,SW,214,9.0,17.0,-999,-99.99,,,-99.99,,2013-06-16 17:43:00,
2013-06-16 13:53:00,65.0,-99.9,29.91,SSW,199,11.0,15.0,-999,-99.99,,,-99.99,,2013-06-16 17:53:00,
2013-06-16 14:02:00,65.0,-99.9,29.91,SW,219,11.0,15.0,-999,-99.99,,,-99.99,,2013-06-16 18:02:00,
2013-06-16 14:12:00,65.0,-99.9,29.91,SW,224,10.0,17.0,-999,-99.99,,,-99.99,,2013-06-16 18:12:00,
2013-06-16 14:23:00,66.0,-99.9,29.91,SSW,204,10.0,14.0,-999,-99.99,,,-99.99,,2013-06-16 18:23:00,
2013-06-16 14:34:00,65.0,-99.9,29.91,SW,214,9.0,16.0,-999,-99.99,,,-99.99,,2013-06-16 18:34:00,
2013-06-16 14:43:00,65.0,-99.9,29.90,SSW,211,12.0,18.0,-999,-99.99,,,-99.99,,2013-06-16 18:43:00,
2013-06-16 14:52:00,65.0,-99.9,29.90,SSW,211,12.0,18.0,-999,-99.99,,,-99.99,,2013-06-16 18:52:00,
2013-06-16 15:02:00,66.0,-99.9,29.91,SSW,201,8.0,17.0,-999,-99.99,,,-99.99,,2013-06-16 19:02:00,
2013-06-16 15:12:00,66.0,-99.9,29.90,SW,216,10.0,19.0,-999,-99.99,,,-99.99,,2013-06-16 19:12:00,
2013-06-16 15:22:00,65.0,-99.9,29.90,SSW,212,9.0,15.0,-999,-99.99,,,-99.99,,2013-06-16 19:22:00,
2013-06-16 15:34:00,65.0,-99.9,29.89,SSW,205,9.0,15.0,-999,-99.99,,,-99.99,,2013-06-16 19:34:00,
2013-06-16 15:43:00,66.0,-99.9,29.89,SSW,212,9.0,17.0,-999,-99.99,,,-99.99,,2013-06-16 19:43:00,
2013-06-16 15:54:00,67.0,-99.9,29.88,SSW,203,8.0,15.0,-999,-99.99,,,-99.99,,2013-06-16 19:54:00,
2013-06-16 16:02:00,67.0,-99.9,29.87,SW,218,12.0,18.0,-999,-99.99,,,-99.99,,2013-06-16 20:02:00,
2013-06-16 16:12:00,67.0,-99.9,29.86,SSW,199,10.0,14.0,-999,-99.99,,,-99.99,,2013-06-16 20:12:00,
2013-06-16 16:22:00,67.0,-99.9,29.86,SSW,204,11.0,19.0,-999,-99.99,,,-99.99,,2013-06-16 20:22:00,
2013-06-16 16:34:00,65.0,-99.9,29.86,SSW,198,13.0,20.0,-999,-99.99,,,-99.99,,2013-06-16 20:34:00,
2013-06-16 16:43:00,65.0,-99.9,29.86,SSW,202,9.0,20.0,-999,-99.99,,,-99.99,,2013-06-16 20:43:00,
2013-06-16 16:53:00,65.0,-99.9,29.85,SSW,201,11.0,18.0,-999,-99.99,,,-99.99,,2013-06-16 20:53:00,
2013-06-16 17:02:00,65.0,-99.9,29.85,SSW,197,8.0,21.0,-999,-99.99,,,-99.99,,2013-06-16 21:02:00,
2013-06-16 17:11:00,65.0,-99.9,29.85,SSW,197,8.0,21.0,-999,-99.99,,,-99.99,,2013-06-16 21:11:00,
2013-06-16 17:22:00,65.0,-99.9,29.85,SSW,197,8.0,21.0,-999,-99.99,,,-99.99,,2013-06-16 21:22:00,
2013-06-16 17:33:00,65.0,-99.9,29.85,SSW,196,11.0,19.0,-999,-99.99,,,-99.99,,2013-06-16 21:33:00,
2013-06-16 17:42:00,65.0,-99.9,29.85,SSW,203,8.0,15.0,-999,-99.99,,,-99.99,,2013-06-16 21:42:00,
2013-06-16 17:53:00,65.0,-99.9,29.85,SSW,203,8.0,15.0,-999,-99.99,,,-99.99,,2013-06-16 21:53:00,
2013-06-16 20:12:00,64.0,-99.9,29.81,SSW,210,13.0,19.0,-999,-99.99,,,-99.99,,2013-06-17 00:12:00,
2013-06-16 21:22:00,63.0,-99.9,29.80,SSW,202,11.0,17.0,-999,-99.99,,,-99.99,,2013-06-17 01:22:00,
2013-06-16 21:32:00,63.0,-99.9,29.80,SSW,209,9.0,21.0,-999,-99.99,,,-99.99,,2013-06-17 01:32:00,
2013-06-16 21:43:00,63.0,-99.9,29.80,SSW,208,9.0,17.0,-999,-99.99,,,-99.99,,2013-06-17 01:43:00,
2013-06-16 21:53:00,63.0,-99.9,29.80,SSW,207,8.0,15.0,-999,-99.99,,,-99.99,,2013-06-17 01:53:00,
2013-06-16 22:03:00,63.0,-99.9,29.81,SSW,212,9.0,17.0,-999,-99.99,,,-99.99,,2013-06-17 02:03:00,
2013-06-16 22:12:00,62.0,-99.9,29.81,SSW,212,8.0,16.0,-999,-99.99,,,-99.99,,2013-06-17 02:12:00,
2013-06-16 22:22:00,63.0,-99.9,29.81,SW,223,11.0,17.0,-999,-99.99,,,-99.99,,2013-06-17 02:22:00,
2013-06-16 22:34:00,63.0,-99.9,29.82,SW,230,10.0,16.0,-999,-99.99,,,-99.99,,2013-06-17 02:34:00,
2013-06-16 22:43:00,63.0,-99.9,29.81,SW,215,10.0,22.0,-999,-99.99,,,-99.99,,2013-06-17 02:43:00,
2013-06-16 22:53:00,63.0,-99.9,29.81,SW,216,10.0,15.0,-999,-99.99,,,-99.99,,2013-06-17 02:53:00,
2013-06-16 23:02:00,63.0,-99.9,29.81,SW,217,11.0,18.0,-999,-99.99,,,-99.99,,2013-06-17 03:02:00,
2013-06-16 23:12:00,63.0,-99.9,29.81,SW,219,10.0,17.0,-999,-99.99,,,-99.99,,2013-06-17 03:12:00,
2013-06-16 23:22:00,63.0,-99.9,29.81,SW,232,6.0,16.0,-999,-99.99,,,-99.99,,2013-06-17 03:22:00,
2013-06-16 23:33:00,63.0,-99.9,29.81,SW,234,11.0,15.0,-999,-99.99,,,-99.99,,2013-06-17 03:33:00,
2013-06-16 23:44:00,63.0,-99.9,29.81,SW,222,9.0,18.0,-999,-99.99,,,-99.99,,2013-06-17 03:44:00,
2013-06-16 23:54:00,62.0,-99.9,29.81,SW,226,9.0,19.0,-999,-99.99,,,-99.99,,2013-06-17 03:54:00,